{"data":{"norad_id":51803,"intl_designator":"2022-017AM","name":"STARLINK-3544","alt_names":[],"object_type":"PAYLOAD","status":"ACTIVE","operator":null,"country":"US","launch_date":"2022-02-25","launch_site_code":"AFWTR","launch_vehicle":null,"mission":null,"orbit_class":"UNKNOWN","rcs_meters":null,"size_class":null,"mass_kg":null,"dimensions":null,"purposes":["comms"],"wikipedia_slug":null,"has_3d_model":false,"image_url":null,"decayed_at":null,"tle_current":{"epoch":"2026-05-25T01:11:53.832768Z","epoch_age_seconds":71525,"freshness":"FRESH","line1":"1 51803U 22017AM  26145.04992862 -.00000413  00000+0 -78835-5 0  9992","line2":"2 51803  53.2131   6.3230 0001065  74.1699 285.9410 15.08838346235449","mean_motion":15.08838346,"eccentricity":0.0001065,"inclination_deg":53.2131,"raan_deg":6.323,"arg_perigee_deg":74.1699,"mean_anomaly_deg":285.941,"bstar":-7.8835e-6,"rev_number":23544,"period_min":95.437659297135,"perigee_km":539.01168978518,"apogee_km":540.48519938488,"semimajor_km":6917.885444585,"source":"CELESTRAK","updated_at":"2026-05-25T13:38:16.956605Z"}}}